Location: Moscow
(55.7500°N, 37.5830°E)
Time: 09:20:29
(UTC+03:00)

Transit 4A - Pass Details

Date: 05 December 2021
Orbit: 863 x 981 km, 66.8° (Epoch: 23 January)

Event Time Altitude Azimuth Distance (km) Brightness Sun altitude
Exits shadow 04:47:54 13° 176° (S) 2,494 10.1 -31.2°
Drops below altitude 10° 04:48:33 10° 173° (S) 2,715 10.3 -31.2°
Sets 04:51:15 0° 167° (SSE) 3,667 11.1 -30.8°
